ATLAS CENTAUR 2 DEB, 19638

Orbit data source: Space-Track

ATLAS CENTAUR 2 DEB, 19638 is space debris in LEO originally from a launch on Wed, 27 Nov 1963 UTC launched from the Air Force Eastern Test Range (AFETR). Debris objects in space refer to the collection of defunct objects orbiting the Earth. Examples of debris include non-operational satellites, rocket bodies, and fragments generated from explosions, collisions, or faulty payload assembly.

Loading next visibility...
Identifier
19638, 1963-047S
Orbit
LEO
Country
Flag of USUS
Related business
Manufacturer
Unknown
Mission
Spacecraft
Bus & Motor
Unknown
Mass
Unknown
Launch date (UTC)
1963-11-27 (62 years ago)
Launch vehicle
Unknown
Launch site
Air Force Eastern Test Range (AFETR)
Object type
Payload
Rocket body
Debris
Shape & HBR
Unknown shape, 0.1 m
Radar Cross Section
Small (<0.1 m²)

Expand to show TLE details & history
Last TLE update: 19 hours ago

TLE from 19 hours ago
0 ATLAS CENTAUR 2 DEB
1 19638U 63047S   26125.09847747 -.00003091  00000-0 -91008-2 0  9994
2 19638  31.0035  55.4794 0625497 346.1046 132.8886 12.55674024569239
Epoch: 2026-05-05T02:21Z
TLE epoch observation values (Epoch: 2026-05-05T02:21:48.453Z)
Latitude
25.38354°
Longitude
-74.75111°
Altitude
1,787.916 km
Speed
6.834 km/s
True Right ascension
12h 14m 42s
True Declination
25° 16' 03"
Sunlit
Object was in daylight at epoch
Visualization orbit readout
Latitude
Unknown
Longitude
Unknown
Altitude
Unknown
Speed
Unknown
Apparent Right ascension
Unknown
Apparent Declination
Unknown
Sunlit
N/A
Visualization observer readout
Local Sidereal Time
05:38:52
Azimuth
Unknown
Elevation
Unknown
Doppler factor
Unknown
Orbital elements
Apogee altitude
1,933.557 km
Perigee altitude
954.979 km
Semi-major axis
7,822.405 km
Eccentricity
0.06255
Inclination
31.0035°
RAAN
55.4794°
Arg. of periapsis
346.1046°
True anomaly
137.86814°
Mean anomaly
132.8886°
Eccentric anomaly
135.40479°
Mean motion
3.13713 °/min
Orbital period
114.75 mins
BSTAR
-0.0091008
Loading maneuver chart data...
Computing Atmospheric mass density...

Documentation

Showing up to 5 results
|